Weather History for Aberdeen, SD

Change the Weather History Date:

Tuesday, January 8, 2013

  Actual Average Record
Temperature  
Mean Temperature 27 °F 12 °F  
Max Temperature 38 °F 22 °F 55 °F (1963)
Min Temperature 15 °F 1 °F -33 °F (1912)
Degree Days  
Heating Degree Days 38 53  
Month to date heating degree days 390 424  
Since 1 July heating degree days 3814 3915  
Cooling Degree Days 0 0  
Month to date cooling degree days 0 0  
Year to date cooling degree days 0 0  
Moisture  
Dew Point 22 °F    
Average Humidity 79    
Maximum Humidity 88    
Minimum Humidity 69    
Precipitation  
Precipitation 0.00 in 0.01 in 0.25 in (2009)
Month to date precipitation T 0.14  
Year to date precipitation T 0.14  
Snow  
Snow 0.00 in - - ()
Month to date snowfall T  
Since 1 July snowfall 13.9  
Snow Depth 3.00 in    
Sea Level Pressure  
Sea Level Pressure 29.83 in    
Wind  
Wind Speed 12 mph (SW)    
Max Wind Speed 28 mph    
Max Gust Speed 35 mph    
Visibility 10 miles    
Events      
T = Trace of Precipitation, MM = Missing Value Source: NWS Daily Summary

Daily Weather History Graph

Daily Weather History Graph

Search for Another Location

Airport:

Trip Planner

Search our weather history database for the weather conditions in past years. The results will help you decide how hot, cold, wet, or windy it might be!

Date:

Astronomy

Jan. 08, 2013 Rise Set
Actual Time 8:12 AM CST 5:08 PM CST
Civil Twilight 7:39 AM CST 5:42 PM CST
Nautical Twilight 7:01 AM CST 6:19 PM CST
Astronomical Twilight 6:26 AM CST 6:55 PM CST
Moon 4:46 AM CST (1/8) 2:12 PM CST (1/8)
Length of Visible Light 10h 03m
Length of Day
8h 56m
Waning Crescent, 13% of the Moon is Illuminated
Jan 8
Waning Crescent
Jan 11
New
Jan 18
First Quarter
Jan 26
Full
Feb 3
Last Quarter

Hourly Weather History & Observations

Time (CST) Temp. Windchill Dew Point Humidity Pressure Visibility Wind Dir Wind Speed Gust Speed Precip Events Conditions
12:53 AM 15.1 °F 6.4 °F 12.9 °F 91% 29.91 in 10.0 mi SE 5.8 mph - N/A   Clear
1:53 AM 16.0 °F 4.4 °F 12.0 °F 84% 29.89 in 10.0 mi SSE 9.2 mph - N/A   Clear
2:53 AM 16.0 °F 4.4 °F 12.0 °F 84% 29.88 in 10.0 mi SSE 9.2 mph - N/A   Clear
3:53 AM 18.0 °F 7.7 °F 12.9 °F 81% 29.85 in 10.0 mi South 8.1 mph - N/A   Clear
4:53 AM 23.0 °F 11.7 °F 18.0 °F 81% 29.82 in 10.0 mi SSE 11.5 mph - N/A   Mostly Cloudy
5:53 AM 26.1 °F 16.8 °F 19.9 °F 78% 29.81 in 10.0 mi South 9.2 mph - N/A   Mostly Cloudy
6:53 AM 28.0 °F 17.5 °F 21.9 °F 78% 29.79 in 10.0 mi SSE 12.7 mph - N/A   Overcast
7:53 AM 28.0 °F 14.6 °F 21.0 °F 75% 29.77 in 10.0 mi SSE 20.7 mph - N/A   Overcast
8:53 AM 30.0 °F 16.9 °F 21.9 °F 72% 29.75 in 10.0 mi SSE 21.9 mph - N/A   Overcast
9:27 AM 28.4 °F 17.5 °F 23.0 °F 80% 29.73 in 10.0 mi SSW 13.8 mph - N/A   Overcast
9:53 AM 28.9 °F 20.4 °F 23.0 °F 78% 29.78 in 10.0 mi SSW 9.2 mph - N/A   Overcast
10:53 AM 28.0 °F 18.6 °F 23.0 °F 81% 29.74 in 10.0 mi SSE 10.4 mph - N/A   Overcast
11:53 AM 28.9 °F 18.2 °F 23.0 °F 78% 29.75 in 10.0 mi SSW 13.8 mph - N/A   Mostly Cloudy
12:53 PM 30.0 °F 21.7 °F 23.0 °F 75% 29.74 in 10.0 mi SW 9.2 mph - N/A   Mostly Cloudy
1:53 PM 33.1 °F 26.1 °F 25.0 °F 72% 29.73 in 10.0 mi WSW 8.1 mph - N/A   Clear
2:53 PM 37.9 °F 27.9 °F 28.0 °F 68% 29.75 in 10.0 mi WNW 19.6 mph 27.6 mph N/A   Clear
3:53 PM 37.9 °F 30.5 °F 28.0 °F 68% 29.78 in 10.0 mi WNW 11.5 mph - N/A   Clear
4:53 PM 35.1 °F 28.6 °F 27.0 °F 72% 29.81 in 10.0 mi West 8.1 mph - N/A   Clear
5:53 PM 30.0 °F 24.1 °F 24.1 °F 79% 29.84 in 10.0 mi WSW 5.8 mph - N/A   Clear
6:53 PM 30.0 °F 21.7 °F 24.1 °F 79% 29.86 in 10.0 mi West 9.2 mph - N/A   Scattered Clouds
7:53 PM 37.0 °F 27.7 °F 28.0 °F 70% 29.89 in 10.0 mi West 16.1 mph - N/A   Overcast
8:53 PM 37.0 °F 28.5 °F 28.0 °F 70% 29.91 in 10.0 mi WNW 13.8 mph - N/A   Mostly Cloudy
9:53 PM 36.0 °F 26.3 °F 27.0 °F 70% 29.93 in 10.0 mi West 16.1 mph 21.9 mph N/A   Scattered Clouds
10:53 PM 33.1 °F 23.9 °F 26.1 °F 75% 29.97 in 10.0 mi WSW 12.7 mph - N/A   Clear
11:53 PM 32.0 °F 21.6 °F 25.0 °F 75% 29.99 in 10.0 mi WSW 15.0 mph - N/A   Clear